#timestamp,LO_Frequency,Hit,StdDev 
1571364015.4,286047004.3,N
1571364035.3,286047001.7,N
1571364055.1,286047002.5,N
1571364075.9,286047000.2,N
1571364095.7,286047000.0,N
1571364115.5,286047000.3,N
1571364135.4,286047002.1,N
1571364155.2,286047004.4,N
1571364175.0,286047003.4,N
1571364175.9,286047003.4,N
1571364195.8,286047003.5,N
1571364215.6,286047002.6,N
1571364235.5,286047003.1,N
1571364255.3,286047001.4,N
1571364275.1,286047004.4,N
1571364295.9,286047003.7,N
1571364315.7,286047003.8,N
1571364335.5,286047003.5,N
1571364355.4,286047004.3,N
1571364375.2,286047001.5,N
1571364395.1,286046999.8,N
1571364396.0,286046999.8,N
1571364415.8,286047002.6,N
1571364435.6,286047001.8,N
1571364455.5,286047004.1,N
1571364475.3,286047003.9,N
1571364495.1,286047002.2,N
1571364515.9,286047002.0,N
1571364535.7,286047004.1,N
1571364555.6,286047005.4,Y
1571364575.4,286047000.9,P
1571364595.2,286047000.0,N
1571364615.1,286047000.9,N
1571364616.0,286047000.9,N
1571364635.8,286047002.6,Y
1571364655.7,286047001.9,P
1571364675.5,286047001.4,P
1571364695.3,286046999.7,N
1571364715.2,286047002.6,Y
1571364735.0,286046999.9,P
1571364735.9,286046999.9,N
1571364755.8,286046998.3,P
1571364775.6,286047000.5,N
1571364795.4,286046999.4,N
1571364815.3,286046999.3,N
1571364835.1,286046998.8,N
1571364855.8,286046998.3,N
1571364875.7,286046998.9,N
1571364895.5,286046998.5,N
1571364915.4,286046999.5,N
1571364935.2,286046996.7,Y
1571364955.0,286046997.2,P
1571364955.9,286046997.2,N
1571364975.8,286046999.1,N
1571364995.6,286046998.7,N
1571365015.4,286046998.7,N
1571365035.3,286046998.9,N
1571365055.1,286046999.3,N
1571365075.9,286047000.5,N
1571365095.7,286047000.8,N
1571365115.5,286046999.5,N
1571365135.4,286046998.7,N
1571365155.2,286047000.9,N
1571365175.1,286046998.7,N
1571365176.0,286046998.7,N
1571365195.8,286046999.1,N
1571365215.6,286046996.5,Y
1571365235.5,286047000.9,P
1571365255.3,286047000.6,N
1571365275.1,286046999.7,N
1571365295.9,286047002.3,Y
1571365315.7,286047003.2,P
1571365335.6,286047005.8,P
1571365355.4,286047003.8,N
1571365375.2,286047003.2,N
1571365395.1,286047003.8,N
1571365396.0,286047003.8,N
1571365415.8,286047003.0,N
1571365435.7,286047005.4,Y
1571365455.5,286047000.0,P
1571365475.3,286047001.4,N
1571365495.2,286047001.6,N
1571365515.0,286047000.6,N
1571365515.9,286047000.6,N
1571365535.7,286047001.1,N
1571365555.6,286047000.1,N
1571365575.4,286047001.8,N
1571365595.3,286047005.8,Y
1571365615.1,286047002.9,P
1571365635.8,286047003.0,P
1571365655.7,286047001.5,N
1571365675.5,286047002.8,Y
1571365695.4,286046996.9,P
1571365715.2,286046998.5,N
1571365735.0,286046999.2,N
1571365735.9,286046999.2,N
1571365755.8,286046996.7,N
1571365775.6,286046998.0,N
1571365795.4,286046998.4,N
1571365815.3,286046998.5,N
1571365835.1,286046998.2,N
1571365855.9,286047002.8,N
1571365875.7,286047000.8,N
1571365895.5,286046999.2,N
1571365915.4,286046996.6,N
1571365935.2,286046997.2,N
1571365955.0,286046995.5,N
1571365956.0,286046995.5,N
1571365975.8,286046996.4,N
1571365995.6,286046995.0,N
1571366015.5,286046997.7,N
1571366035.3,286046997.6,N
1571366055.1,286046997.5,N
1571366075.9,286046999.0,N
1571366095.7,286046997.8,N
1571366115.6,286046995.7,N
1571366135.4,286046997.8,N
1571366155.2,286046998.9,N
1571366175.1,286047001.2,N
1571366176.0,286047001.2,N
1571366195.8,286046999.2,N
1571366215.7,286046997.7,N
1571366235.5,286046998.4,N
1571366255.3,286047000.9,N
1571366275.2,286047001.2,N
1571366295.0,286047001.1,N
1571366295.9,286047001.1,N
1571366315.7,286046996.5,N
1571366335.6,286046996.7,N
1571366355.4,286046997.0,N
1571366375.3,286046999.5,N
1571366395.1,286047001.2,N
1571366396.0,286047001.2,N
1571366415.8,286046996.8,N
1571366435.7,286046995.3,N
1571366455.5,286046995.6,N
1571366475.4,286046995.6,N
1571366495.2,286046994.1,N
1571366515.0,286046991.9,Y
1571366515.9,286046991.9,P
1571366535.8,286046993.4,N
1571366555.6,286046996.4,N
1571366575.4,286046996.4,N
1571366595.3,286046992.1,Y
1571366615.1,286046997.1,P
1571366635.9,286046999.4,N
1571366655.7,286046997.3,N
1571366675.5,286046996.5,N
1571366695.4,286046998.4,N
1571366715.2,286046999.0,N
1571366735.0,286046997.0,N
1571366736.0,286046997.0,N
1571366755.8,286046999.6,N
1571366775.6,286046996.9,N
1571366795.5,286046999.3,N
1571366815.3,286046996.6,N
1571366835.1,286046998.9,N
1571366855.9,286046999.4,N
1571366875.7,286046998.5,N
1571366895.6,286046998.5,N
1571366915.4,286046997.1,N
1571366935.2,286046997.9,N
1571366955.1,286046996.7,N
1571366956.0,286046996.7,N
1571366975.8,286046997.9,N
1571366995.6,286046998.0,N
1571367015.5,286046997.7,N
1571367035.3,286046995.4,Y
1571367055.2,286046999.1,P
1571367075.9,286046998.5,N
1571367095.7,286046998.2,P
1571367115.6,286046998.1,Y
1571367135.4,286047000.2,P
1571367155.3,286047002.0,N
1571367175.1,286047002.8,N
1571367176.0,286047002.8,N
1571367195.8,286047002.4,N
1571367215.7,286047002.1,N
1571367235.5,286046999.7,N
1571367255.3,286046999.7,N
1571367275.2,286047002.0,N
1571367295.0,286046999.7,N
1571367295.9,286046999.7,N
1571367315.8,286047002.2,N
1571367335.6,286047002.1,N
1571367355.4,286047001.5,N
1571367375.3,286047001.9,N
1571367395.1,286047004.2,Y
1571367415.8,286047002.1,P
1571367435.7,286047000.1,N
1571367455.5,286047004.0,P
1571367475.4,286047001.9,N
1571367495.2,286047002.5,N
1571367515.0,286047004.4,Y
1571367515.9,286047004.4,P
1571367565.8,286046999.9,E
1571367575.7,286047000.3,N
1571367595.5,286047002.4,P
